Regional Weather Roundup
Issued by NWS Sterling, VA

Home | Current Version | Previous Version | Graphics & Text | Print | Product List | Glossary On
Versions: 1 2 3 4 5 6 7 8 9 10 11 12 13 14 15 16 17 18 19 20 21 22 23 24 25 26 27 28 29 30 31 32 33 34 35 36 37 38 39 40 41 42 43 44 45 46 47 48 49 50
000
ASUS41 KLWX 282310
RWRLWX

REGIONAL WEATHER ROUNDUP
NATIONAL WEATHER SERVICE BALTIMORE MD/WASHINGTON DC
700 PM EDT THU MAY 28 2015

Note: "FAIR" indicates few or no clouds below 12,000 feet
with no significant weather and/or obstructions to visibility.
 TC=TEMPERATURE CELSIUS

 * =Non NWS site. Station does not report precipitation (e.g. rain,
    snow, etc.), thunder, or fog.

DCZ001-MDZ009-015-VAZ040>042-051-053>054-290000-
WASHINGTON METRO

CITY           SKY/WX    TMP DP  RH WIND       PRES   REMARKS
WASHINGTON NAT TSTM      78  67  68 W14G22    30.15S
DULLES         PTSUNNY   80  67  64 CALM      30.16S
ANDREWS AFB    TSTM      75  68  78 NW21G26   30.16R
FT BELVOIR     PTSUNNY   80  67  64 NW5       30.15R
QUANTICO       PTSUNNY   81  67  62 NW5       30.15F
COLLEGE PARK*  PTSUNNY   86  68  54 S5        30.15R
LEESBURG*      CLOUDY    82  70  65 W5        30.17R
MANASSAS*      MOSUNNY   75  70  83 CALM      30.15F
GAITHERSBURG*  MOSUNNY   84  63  48 NW3       30.19S

$$

MDZ006>007-011-014-290000-
BALTIMORE METRO

CITY           SKY/WX    TMP DP  RH WIND       PRES   REMARKS
BWI AIRPORT    PTSUNNY   84  68  58 S7        30.13S
MD SCIENCE CTR   N/A     84  62  47 MISG      30.15R
MARTIN STATE   MOSUNNY   82  73  74 CALM      30.16S
ANNAPOLIS      PTSUNNY   79  66  64 S10       30.15R
FORT MEADE*    PTSUNNY   81  70  69 S6        30.17R

$$

MDZ012-015-019>023-290000-
MARYLAND EASTERN SHORE

CITY           SKY/WX    TMP DP  RH WIND       PRES   REMARKS
OCEAN CITY     PTSUNNY   73  65  75 SW13G20   30.18S
SALISBURY      PTSUNNY   78  69  73 MISG      30.17R
BAY BRIDGE AP*   N/A    N/A N/A N/A CALM      30.15R
CAMBRIDGE*     PTSUNNY   81  68  65 S6        30.16R
EASTON*        MOSUNNY   84  68  58 SW7       30.19R

$$

MDZ017>025-290000-
SOUTHERN MARYLAND

CITY           SKY/WX    TMP DP  RH WIND       PRES   REMARKS
PATUXENT RIVER PTSUNNY   78  70  76 SE9       30.15S
ST INIGOES     MOSUNNY   81  70  69 SE10      30.15S
LEONARDTOWN*   MOSUNNY   81  68  65 SE5       30.17S

$$

MDZ003>005-290000-
NORTH CENTRAL MARYLAND

CITY           SKY/WX    TMP DP  RH WIND       PRES   REMARKS
FREDERICK*     MOSUNNY   84  66  54 N7        30.18R
HAGERSTOWN APT PTSUNNY   83  56  39 N10       30.18R
WESTMINSTER*   MOSUNNY   82  64  54 N5        30.18R

$$

MDZ501>502-290000-
WESTERN MARYLAND

CITY           SKY/WX    TMP DP  RH WIND       PRES   REMARKS
OAKLAND*       PTSUNNY   70  63  78 CALM      30.29S
CUMBERLAND*    PTSUNNY   82  59  44 N7        30.22R

$$

VAZ025>031-290000-
SHENANDOAH VALLEY

CITY           SKY/WX    TMP DP  RH WIND       PRES   REMARKS
WINCHESTER*    HVY RAIN  77  63  61 S14       30.19R
FRONT ROYAL*   FAIR      77  64  65 CALM      30.16S
LURAY*         CLOUDY    81  68  65 SW10G16   30.19R
NEW MARKET*    FAIR      76  65  66 S7        30.17R
STAUNTON*      PTSUNNY   82  65  56 CALM      30.22R
WAYNESBORO*    FAIR      78  65  64 E7        30.21S

$$

WVZ021-048>050-054>055-290000-
EASTERN WEST VIRGINIA PANHANDLE

CITY           SKY/WX    TMP DP  RH WIND       PRES   REMARKS
MARTINSBURG    PTSUNNY   83  62  49 N6        30.18R
PETERSBURG*    CLOUDY    78  63  60 CALM      30.20R

$$

VAZ036>039-050-290000-
CENTRAL FOOTHILLS

CITY           SKY/WX    TMP DP  RH WIND       PRES   REMARKS
CHARLOTTESVILL PTSUNNY   78  63  59 N5        30.17F
CULPEPER*      CLOUDY    80  64  57 CALM      30.16F
ORANGE*        CLOUDY    77  68  73 S5        30.18F
GORDONSVILLE*  FAIR      71  69  92 CALM      30.16S
WARRENTON*     FAIR      82  69  65 E3        30.16S

$$

VAZ055>057-290000-
NORTH AND CENTRAL PIEDMONT

CITY           SKY/WX    TMP DP  RH WIND       PRES   REMARKS
FREDERICKSBRG* PTSUNNY   83  70  62 CALM      30.14S
STAFFORD*      PTSUNNY   80  71  74 CALM      30.19S

$$

NCZ024-NYZ072-PAZ021-071-VAZ022-071-290000-
OTHER REGIONAL OBSERVATIONS

CITY           SKY/WX    TMP DP  RH WIND       PRES   REMARKS
NEW YORK CITY  CLOUDY    83  66  56 CALM      30.15R
PHILADELPHIA   PTSUNNY   83  65  54 SW7       30.15R
PITTSBURGH     MOSUNNY   79  54  41 E7        30.22S
ROANOKE        PTSUNNY   81  62  52 NE9       30.20S
RICHMOND       PTSUNNY   83  67  58 S6        30.15R THUNDER
RALEIGH        MOSUNNY   83  67  58 SE6       30.15S

$$

ANZ530>537-290000-
MARINE OBSERVATIONS

STATION/POSITION TIME  TEMP    WIND        PRES
                       AIR SEA DIR/SP/G
                 (UTC) (F)     (DEG/KT/KT) (MB)
THOMAS PT LIGHT  2300   73 73  190/ 12/ 13 1021.4R
BALT KEY BRIDGE  2200   81     110/  8/  9 1020.2F
COVE POINT       2200   73     190/ 12/ 14 1021.7F
LEWISETTA        2200   79 77              1020.6F
SOLOMONS ISLAND  2200      78                N/A
PINEY POINT      2200          140/  6/  6   N/A

$$



USA.gov is the U.S. government's official web portal to all federal, state and local government web resources and services.